Location: Banff
(51.1670°N, 115.5670°W)
Time: 16:21:54
(UTC-06:00)

Amateur Radio Satellites - All Passes

Search period start: 24 July 2016 15:51
Search period end: 25 July 2016 15:51
Location: Banff, 51.1670°N, 115.5670°W

Satellite Date Start Highest point End Downlink Frequencies (MHz)
Time Altitude Azimuth
ITAMSAT 1 24 Jul 15:53:11 15:58:23 66° 257° (WSW) 16:03:37 435.822/435.867
DANDE 24 Jul 15:57:01 15:59:08 20° 68° (ENE) 16:01:10 436.750
CUSAT 1 24 Jul 16:02:24 16:05:06 77° 256° (WSW) 16:08:11 437.405
ITUPSAT 1 24 Jul 16:05:17 16:10:01 55° 101° (E) 16:14:41 437.325
Cosmos 2499 24 Jul 16:07:48 16:15:31 35° 83° (E) 16:23:04 435.465 / 435.565
Oscar 19 24 Jul 16:10:26 16:11:12 10° 277° (W) 16:11:56 437.125/150
RS-15 24 Jul 16:13:08 16:25:31 75° 42° (NE) 16:37:53 29.354- 29.394
AIST 1 24 Jul 16:31:10 16:33:49 16° 297° (WNW) 16:36:30
SO-50 24 Jul 16:38:34 16:42:47 30° 30° (NNE) 16:46:52 436.795
KKS-1 24 Jul 16:40:14 16:43:25 19° 91° (E) 16:46:34 437.445
Cubesat XI-IV 24 Jul 16:49:44 16:51:25 11° 46° (NE) 16:53:06 437.490
TISAT 1 24 Jul 16:51:53 16:54:14 15° 304° (WNW) 16:56:33 437.305
MOZHAYETS 4 24 Jul 16:52:18 16:56:10 26° 93° (E) 16:59:58
AO-7 24 Jul 16:57:54 17:06:03 55° 258° (WSW) 17:14:17 29.400- 29.500
SWISSCUBE 24 Jul 17:00:20 17:04:54 47° 293° (WNW) 17:09:27 437.505
AO-85 24 Jul 17:06:25 17:11:40 57° 317° (NW) 17:16:35 145.980
HORYU 2 24 Jul 17:06:44 17:11:03 47° 68° (ENE) 17:15:23 437.375
CUTE-I 24 Jul 17:12:26 17:15:41 17° 52° (NE) 17:18:57 437.470
GONETS M04 24 Jul 17:12:57 17:21:40 89° 284° (WNW) 17:30:28
BEESAT 24 Jul 17:22:16 17:26:34 34° 296° (WNW) 17:30:52 436.000
NOAA 18 24 Jul 17:22:27 17:26:28 21° 53° (NE) 17:30:30 137.9125
STARS 24 Jul 17:26:45 17:30:33 27° 94° (E) 17:34:19 437.465
ITAMSAT 1 24 Jul 17:37:38 17:38:53 11° 277° (W) 17:40:08 435.822/435.867
DANDE 24 Jul 17:40:21 17:41:42 13° 269° (W) 17:43:03 436.750
NOAA 15 24 Jul 17:40:44 17:45:16 31° 61° (ENE) 17:49:49 137.62
GOMX 1 24 Jul 17:43:10 17:45:30 15° 55° (NE) 17:47:53 467.674
ITUPSAT 1 24 Jul 17:43:42 17:47:34 25° 300° (WNW) 17:51:23 437.325
HO-68 24 Jul 17:55:34 17:58:59 14° 36° (NE) 18:02:24 435.675
Cosmos 2499 24 Jul 17:59:17 18:08:09 69° 284° (WNW) 18:16:48 435.465 / 435.565
BRITE-PL 24 Jul 18:02:05 18:05:55 38° 68° (ENE) 18:09:49 437.365/2234.400
CUBESAT XI-V 24 Jul 18:03:52 18:07:12 19° 90° (E) 18:10:31 437.345
KKS-1 24 Jul 18:15:57 18:20:24 62° 289° (WNW) 18:24:49 437.445
SO-50 24 Jul 18:18:59 18:23:40 69° 232° (SW) 18:28:11 436.795
Cubesat XI-IV 24 Jul 18:25:10 18:30:20 50° 67° (ENE) 18:35:33 437.490
RS-15 24 Jul 18:26:07 18:37:29 46° 249° (WSW) 18:48:47 29.354- 29.394
MOZHAYETS 4 24 Jul 18:29:08 18:33:31 44° 292° (WNW) 18:37:51
LilacSat-2 24 Jul 18:42:03 18:45:51 57° 72° (ENE) 18:49:43 437.200
HORYU 2 24 Jul 18:44:10 18:47:50 24° 267° (W) 18:51:31 437.375
AO-85 24 Jul 18:49:09 18:53:05 22° 339° (NNW) 18:56:50 145.980
CUTE-I 24 Jul 18:49:34 18:54:56 77° 72° (ENE) 19:00:20 437.470
CANX-2 24 Jul 18:56:12 18:57:27 11° 54° (NE) 18:58:42 2200.000
AO-7 24 Jul 18:57:49 19:00:53 12° 280° (W) 19:03:58 29.400- 29.500
NOAA 18 24 Jul 19:00:57 19:06:30 86° 252° (WSW) 19:12:07 137.9125
STARS 24 Jul 19:02:51 19:07:04 42° 293° (WNW) 19:11:14 437.465
CUTE 1.7 + AOD 2 24 Jul 19:09:24 19:11:22 13° 56° (NE) 19:13:20 437.475
GONETS M04 24 Jul 19:12:50 19:19:51 26° 305° (NW) 19:26:56
YUBILEINY 24 Jul 19:17:25 19:21:53 14° 40° (NE) 19:26:19 435.215
GOMX 1 24 Jul 19:18:48 19:22:59 83° 258° (WSW) 19:27:22 467.674
NOAA 15 24 Jul 19:19:46 19:24:51 50° 260° (W) 19:29:58 137.62
DOVE 4 24 Jul 19:26:14 19:30:27 58° 70° (ENE) 19:34:55 437.250
HO-68 24 Jul 19:38:17 19:45:00 45° 60° (ENE) 19:51:46 435.675
CUBESAT XI-V 24 Jul 19:40:27 19:45:00 61° 289° (WNW) 19:49:32 437.345
BRITE-PL 24 Jul 19:41:12 19:44:37 24° 267° (W) 19:48:04 437.365/2234.400
CUBEBUG 2 24 Jul 19:50:28 19:53:07 15° 55° (NE) 19:55:47 437.445
SEEDS 24 Jul 19:52:17 19:55:34 22° 62° (ENE) 19:58:52 437.485
KKS-1 24 Jul 19:54:55 19:56:05 11° 309° (NW) 19:57:16 437.445
Cosmos 2499 24 Jul 19:56:48 20:03:04 21° 309° (NW) 20:09:13 435.465 / 435.565
CINEMA 3 24 Jul 19:58:42 20:02:57 41° 67° (ENE) 20:07:25 145.822/145.860
STRAND 1 24 Jul 20:00:40 20:04:24 20° 90° (E) 20:08:07 437.568
SO-50 24 Jul 20:01:44 20:03:15 11° 252° (WSW) 20:04:46 436.795
Cubesat XI-IV 24 Jul 20:05:58 20:10:39 30° 266° (W) 20:15:22 437.490
COMPASS 1 24 Jul 20:09:23 20:12:43 23° 63° (ENE) 20:16:03 437.405
LilacSat-2 24 Jul 20:18:07 20:20:32 16° 271° (W) 20:22:58 437.200
PCSat 24 Jul 20:26:41 20:30:59 25° 110° (ESE) 20:35:20 145.827
CANX-2 24 Jul 20:28:17 20:32:33 70° 72° (ENE) 20:36:48 2200.000
Oscar 11 24 Jul 20:28:50 20:31:25 16° 57° (ENE) 20:33:59 145.826/435.025
CUTE-I 24 Jul 20:31:48 20:35:36 19° 271° (W) 20:39:25 437.470
AO-85 24 Jul 20:32:11 20:35:14 16° 3° (N) 20:38:10 145.980
AAUSAT CUBESAT 2 24 Jul 20:39:58 20:43:46 35° 67° (ENE) 20:47:35 437.432
CUTE 1.7 + AOD 2 24 Jul 20:42:16 20:46:33 83° 72° (ENE) 20:50:51 437.475
NOAA 18 24 Jul 20:44:43 20:48:00 16° 273° (W) 20:51:17 137.9125
RS-15 24 Jul 20:44:48 20:46:23 10° 273° (W) 20:47:59 29.354- 29.394
Cosmos 2491 24 Jul 20:50:54 20:54:40 14° 67° (ENE) 20:58:27 435.465 / 435.565
BEESAT 3 24 Jul 20:51:22 20:55:15 62° 126° (SE) 20:59:10 437.485
BEESAT 2 24 Jul 20:52:02 20:55:42 37° 122° (ESE) 20:59:25 435.950
Cosmos 2504 24 Jul 20:52:38 20:57:37 16° 45° (NE) 21:02:26 435.465 / 435.565
M-CUBED/EXP-1 PRIME 24 Jul 20:53:20 20:55:59 18° 51° (NE) 20:58:47 437.505
DOVE 4 24 Jul 21:05:36 21:08:38 18° 272° (W) 21:11:46 437.250
UWE-3 24 Jul 21:08:31 21:12:54 46° 68° (ENE) 21:17:22 435.000/436.395/437.385
YUBILEINY 24 Jul 21:13:00 21:21:32 48° 68° (ENE) 21:29:59 435.215
ZACube-1 24 Jul 21:15:42 21:19:54 37° 66° (ENE) 21:24:08 437.345
FUNcube-1 24 Jul 21:16:24 21:20:33 36° 66° (ENE) 21:24:45 145.935
CUBESAT XI-V 24 Jul 21:20:17 21:21:29 11° 309° (NW) 21:22:40 437.345
AUBIESAT-1 24 Jul 21:21:08 21:24:23 25° 55° (NE) 21:27:50 437.475
HUMSAT D 24 Jul 21:21:29 21:23:27 13° 55° (NE) 21:25:25 437.325/437.525
PHONESAT 2.4 24 Jul 21:22:25 21:23:39 12° 178° (S) 21:24:54 2401.200-2431.200
CUBEBUG 2 24 Jul 21:24:25 21:29:01 85° 75° (ENE) 21:33:47 437.445
HO-68 24 Jul 21:25:48 21:32:42 49° 260° (W) 21:39:42 435.675
SEEDS 24 Jul 21:26:55 21:31:01 49° 261° (W) 21:35:09 437.485
DELFI C3 24 Jul 21:26:58 21:30:04 22° 63° (ENE) 21:33:10 145.870
CINEMA 3 24 Jul 21:36:18 21:40:14 29° 267° (W) 21:44:21 145.822/145.860
STRAND 1 24 Jul 21:38:59 21:44:06 69° 289° (WNW) 21:49:10 437.568
COMPASS 1 24 Jul 21:44:02 21:48:03 45° 261° (W) 21:52:06 437.405
Oscar 11 24 Jul 22:02:37 22:06:59 82° 257° (WSW) 22:11:22 145.826/435.025
CANX-2 24 Jul 22:06:20 22:08:52 15° 272° (W) 22:11:26 2200.000
PCSat 24 Jul 22:08:31 22:13:56 70° 310° (NW) 22:19:23 145.827
AO-85 24 Jul 22:13:11 22:17:14 27° 28° (NNE) 22:21:00 145.980
PRISM 24 Jul 22:13:23 22:17:22 46° 100° (E) 22:21:18 437.425
AAUSAT CUBESAT 2 24 Jul 22:15:44 22:19:19 28° 266° (W) 22:22:55 437.432
CUTE 1.7 + AOD 2 24 Jul 22:21:03 22:22:59 13° 273° (W) 22:24:55 437.475
O/OREOS (USA 219) 24 Jul 22:23:51 22:28:13 56° 112° (ESE) 22:32:37 437.305
M-CUBED/EXP-1 PRIME 24 Jul 22:26:16 22:30:01 68° 252° (WSW) 22:34:09 437.505
BEESAT 2 24 Jul 22:29:52 22:33:34 36° 322° (NW) 22:37:18 435.950
BEESAT 3 24 Jul 22:29:53 22:33:15 26° 328° (NNW) 22:36:37 437.485
AIST 2 24 Jul 22:30:00 22:33:16 23° 116° (ESE) 22:36:34 435.215
Cosmos 2491 24 Jul 22:41:03 22:49:29 58° 91° (E) 22:57:58 435.465 / 435.565
Cosmos 2504 24 Jul 22:45:03 22:53:22 57° 72° (ENE) 23:01:01 435.465 / 435.565
UWE-3 24 Jul 22:45:43 22:49:33 26° 268° (W) 22:53:29 435.000/436.395/437.385
ESTCUBE 1 24 Jul 22:48:30 22:51:40 19° 59° (ENE) 22:54:51 437.505/2401.250
ZACube-1 24 Jul 22:52:11 22:56:14 31° 266° (W) 23:00:21 437.345
FUNcube-1 24 Jul 22:52:45 22:56:49 32° 265° (W) 23:00:58 145.935
HUMSAT D 24 Jul 22:54:04 22:58:24 81° 72° (ENE) 23:02:44 437.325/437.525
AUBIESAT-1 24 Jul 22:55:01 22:58:39 42° 256° (WSW) 23:02:36 437.475
DELFI C3 24 Jul 23:00:54 23:04:42 43° 261° (W) 23:08:32 145.870
CUBEBUG 2 24 Jul 23:03:51 23:06:19 14° 274° (W) 23:08:51 437.445
ANTELSAT 24 Jul 23:08:53 23:12:27 21° 90° (E) 23:15:57 437.575/2403.000
YUBILEINY 24 Jul 23:10:03 23:18:27 50° 272° (W) 23:26:49 435.215
VELOX 1 24 Jul 23:16:31 23:19:49 21° 60° (ENE) 23:23:08 145.980
STRAND 1 24 Jul 23:19:47 23:22:24 14° 309° (NW) 23:25:02 437.568
CUBEBUG 1 24 Jul 23:24:30 23:28:05 26° 63° (ENE) 23:31:41 437.445
SPROUT 24 Jul 23:32:36 23:35:07 15° 57° (ENE) 23:37:38 437.525
50 SAT 24 Jul 23:33:28 23:36:29 24° 65° (ENE) 23:39:30 437.505
Oscar 11 24 Jul 23:42:44 23:43:51 11° 275° (W) 23:44:58 145.826/435.025
PRISM 24 Jul 23:49:14 23:52:26 22° 299° (WNW) 23:55:37 437.425
TIGRISAT 24 Jul 23:50:47 23:55:20 46° 99° (E) 23:59:45 435.000
AO-85 24 Jul 23:53:37 23:58:13 76° 231° (SW) 00:02:23 145.980
PCSat 24 Jul 23:54:01 23:58:18 23° 333° (NNW) 00:02:36 145.827
AISAT 24 Jul 23:59:50 00:04:05 50° 69° (ENE) 00:08:22 437.250
O/OREOS (USA 219) 25 Jul 00:04:15 00:07:57 25° 313° (NW) 00:11:41 437.305
UNISAT 6 25 Jul 00:06:12 00:10:53 67° 101° (ESE) 00:15:28 437.425
AIST 2 25 Jul 00:07:24 00:11:28 57° 317° (NW) 00:15:35 435.215
DX 1 25 Jul 00:09:07 00:13:15 45° 68° (ENE) 00:17:25 434.975-435.025
BEESAT 2 25 Jul 00:10:19 00:12:29 14° 345° (NNW) 00:14:40 435.950
BEESAT 3 25 Jul 00:10:31 00:12:12 12° 351° (N) 00:13:53 437.485
NANOSAT C BR1 25 Jul 00:16:01 00:18:39 16° 89° (E) 00:21:17 145.865
DUCHIFAT 1 25 Jul 00:21:32 00:24:18 17° 89° (E) 00:27:05 145.980
ESTCUBE 1 25 Jul 00:23:35 00:28:03 67° 257° (WSW) 00:32:32 437.505/2401.250
ISS 25 Jul 00:23:39 00:26:42 39° 154° (SSE) 00:29:47 145.825
UKube-1 25 Jul 00:27:46 00:31:58 55° 70° (ENE) 00:36:12 .
HUMSAT D 25 Jul 00:32:28 00:34:36 13° 273° (W) 00:36:44 437.325/437.525
QB50P1 25 Jul 00:36:11 00:39:47 25° 94° (E) 00:43:21 145.935-145.965
TISAT 1 25 Jul 00:37:22 00:40:11 18° 58° (ENE) 00:43:02 437.305
Cosmos 2491 25 Jul 00:38:38 00:46:44 41° 295° (WNW) 00:54:54 435.465 / 435.565
Cosmos 2504 25 Jul 00:38:55 00:46:28 39° 276° (W) 00:53:31 435.465 / 435.565
JAS-2 25 Jul 00:40:16 00:41:44 11° 84° (E) 00:43:12 435.910
POPSAT HIP 1 25 Jul 00:42:17 00:46:02 28° 95° (E) 00:49:45 437.405
ANTELSAT 25 Jul 00:44:54 00:49:32 57° 290° (WNW) 00:54:02 437.575/2403.000
BUGSAT 1 25 Jul 00:47:25 00:49:49 15° 88° (E) 00:52:13 437.445
VELOX 1 25 Jul 00:51:38 00:55:57 57° 259° (W) 01:00:18 145.980
AIST 1 25 Jul 00:53:10 00:57:00 30° 70° (ENE) 01:00:50
CUBEBUG 1 25 Jul 01:00:06 01:04:12 42° 262° (W) 01:08:21 437.445
SWISSCUBE 25 Jul 01:00:48 01:01:50 11° 49° (NE) 01:02:51 437.505
QB50P2 25 Jul 01:02:17 01:06:28 46° 99° (E) 01:10:36 145.880/145.840
POLYITAN 1 25 Jul 01:04:55 01:09:07 47° 99° (E) 01:13:16 437.675
SPROUT 25 Jul 01:06:13 01:10:30 82° 256° (WSW) 01:14:50 437.525
50 SAT 25 Jul 01:06:41 01:10:01 32° 263° (W) 01:13:22 437.505
YUBILEINY 25 Jul 01:10:31 01:12:57 11° 295° (WNW) 01:15:23 435.215
GONETS M04 25 Jul 01:20:40 01:26:26 19° 47° (NE) 01:32:12
BEESAT 25 Jul 01:20:48 01:23:16 14° 52° (NE) 01:25:45 436.000
TIGRISAT 25 Jul 01:27:51 01:31:49 27° 298° (WNW) 01:35:42 435.000
AO-85 25 Jul 01:36:16 01:37:44 12° 253° (WSW) 01:39:11 145.980
AISAT 25 Jul 01:37:27 01:40:50 22° 268° (W) 01:44:16 437.250
PCSat 25 Jul 01:40:39 01:43:43 15° 359° (N) 01:46:47 145.827
ITUPSAT 1 25 Jul 01:41:00 01:44:24 20° 57° (ENE) 01:47:49 437.325
UNISAT 6 25 Jul 01:43:44 01:47:09 20° 302° (WNW) 01:50:32 437.425
DX 1 25 Jul 01:46:11 01:49:40 23° 267° (W) 01:53:10 434.975-435.025
AIST 2 25 Jul 01:47:56 01:50:47 18° 338° (NNW) 01:53:40 435.215
BEESAT 3 25 Jul 01:49:23 01:51:29 14° 15° (NNE) 01:53:36 437.485
BEESAT 2 25 Jul 01:50:11 01:51:56 12° 9° (N) 01:53:42 435.950
NANOSAT C BR1 25 Jul 01:50:35 01:54:52 68° 287° (WNW) 01:59:06 145.865
Cosmos 2499 25 Jul 01:52:44 01:58:01 18° 48° (NE) 02:03:02 435.465 / 435.565
DUCHIFAT 1 25 Jul 01:56:11 02:00:26 63° 289° (WNW) 02:04:39 145.980
ISS 25 Jul 01:59:45 02:03:01 85° 352° (N) 02:06:17 145.825
UKube-1 25 Jul 02:05:16 02:08:22 19° 269° (W) 02:11:29 .
TISAT 1 25 Jul 02:11:14 02:15:24 66° 258° (WSW) 02:19:38 437.305
QB50P1 25 Jul 02:11:40 02:15:43 41° 292° (WNW) 02:19:45 145.935-145.965
POPSAT HIP 1 25 Jul 02:17:55 02:21:54 37° 293° (WNW) 02:25:51 437.405
BUGSAT 1 25 Jul 02:21:26 02:25:41 73° 287° (WNW) 02:29:56 437.445
JAS-2 25 Jul 02:22:36 02:27:49 72° 104° (ESE) 02:33:19 435.910
ANTELSAT 25 Jul 02:24:09 02:25:15 11° 310° (NW) 02:26:21 437.575/2403.000
AIST 1 25 Jul 02:30:44 02:34:38 33° 269° (W) 02:38:31
Oscar 19 25 Jul 02:32:09 02:36:41 30° 94° (E) 02:41:13 437.125/150
SWISSCUBE 25 Jul 02:33:57 02:38:38 54° 69° (ENE) 02:43:19 437.505
QB50P2 25 Jul 02:38:34 02:42:02 24° 298° (WNW) 02:45:29 145.880/145.840
POLYITAN 1 25 Jul 02:41:14 02:44:41 24° 298° (WNW) 02:48:07 437.675
Cosmos 2491 25 Jul 02:43:30 02:46:44 12° 323° (NW) 02:50:00 435.465 / 435.565
SPROUT 25 Jul 02:46:21 02:47:11 10° 275° (W) 02:48:01 437.525
BEESAT 25 Jul 02:55:31 03:00:17 76° 72° (ENE) 03:05:06 436.000
GONETS M04 25 Jul 03:16:43 03:25:27 62° 73° (ENE) 03:34:11
ITUPSAT 1 25 Jul 03:16:57 03:21:45 74° 257° (WSW) 03:26:35 437.325
PCSat 25 Jul 03:24:58 03:29:11 22° 25° (NNE) 03:33:22 145.827
BEESAT 3 25 Jul 03:26:34 03:30:16 35° 38° (NE) 03:33:56 437.485
BEESAT 2 25 Jul 03:27:39 03:31:04 26° 32° (NNE) 03:34:29 435.950
NANOSAT C BR1 25 Jul 03:28:38 03:29:48 11° 307° (NW) 03:30:58 145.865
AIST 2 25 Jul 03:29:00 03:30:51 13° 3° (N) 03:32:43 435.215
Gurwin Techsat 1B 25 Jul 03:31:51 03:37:00 45° 99° (E) 03:42:05 435.225
DUCHIFAT 1 25 Jul 03:34:34 03:35:18 10° 308° (NW) 03:36:00 145.980
ISS 25 Jul 03:36:14 03:39:30 83° 191° (S) 03:42:47 145.825
KKS-1 25 Jul 03:42:52 03:46:48 32° 64° (ENE) 03:50:46 437.445
Cosmos 2499 25 Jul 03:45:01 03:53:08 65° 74° (ENE) 04:00:35 435.465 / 435.565
MOZHAYETS 4 25 Jul 03:58:45 04:03:10 44° 68° (ENE) 04:07:35
BUGSAT 1 25 Jul 03:58:51 04:00:19 12° 306° (NW) 04:01:48 437.445
ITAMSAT 1 25 Jul 04:01:00 04:05:34 30° 94° (E) 04:10:04 435.822/435.867
JAS-2 25 Jul 04:08:41 04:12:31 21° 303° (WNW) 04:16:27 435.910
Oscar 19 25 Jul 04:11:16 04:16:12 47° 294° (WNW) 04:21:09 437.125/150
SWISSCUBE 25 Jul 04:12:56 04:16:45 23° 268° (W) 04:20:35 437.505
STARS 25 Jul 04:28:00 04:32:11 44° 68° (ENE) 04:36:24 437.465
BEESAT 25 Jul 04:35:34 04:38:39 17° 271° (W) 04:41:44 436.000
AO-7 25 Jul 04:53:20 05:01:07 40° 97° (E) 05:08:47 29.400- 29.500
ITUPSAT 1 25 Jul 04:59:05 05:00:27 11° 275° (W) 05:01:49 437.325
BEESAT 3 25 Jul 05:04:17 05:07:59 38° 238° (WSW) 05:11:40 437.485
BEESAT 2 25 Jul 05:05:15 05:09:14 64° 234° (SW) 05:13:12 435.950
AIST 2 25 Jul 05:07:35 05:10:49 21° 26° (NNE) 05:14:04 435.215
PCSat 25 Jul 05:08:10 05:13:37 65° 49° (NE) 05:19:00 145.827
DANDE 25 Jul 05:09:45 05:14:32 31° 96° (E) 05:18:17 436.750
CUSAT 1 25 Jul 05:10:42 05:14:46 66° 100° (E) 05:17:56 437.405
CUBESAT XI-V 25 Jul 05:11:49 05:15:57 34° 65° (ENE) 05:20:06 437.345
Gurwin Techsat 1B 25 Jul 05:12:05 05:16:50 33° 298° (WNW) 05:21:32 435.225
O/OREOS (USA 219) 25 Jul 05:12:09 05:13:02 10° 31° (NNE) 05:13:56 437.305
ISS 25 Jul 05:12:50 05:15:42 28° 211° (SSW) 05:18:31 145.825
GONETS M04 25 Jul 05:14:04 05:21:52 38° 276° (W) 05:29:43
KKS-1 25 Jul 05:19:15 05:23:20 35° 263° (W) 05:27:27 437.445
MOZHAYETS 4 25 Jul 05:36:35 05:40:31 27° 267° (W) 05:44:27
Cosmos 2499 25 Jul 05:38:50 05:45:41 32° 278° (W) 05:52:07 435.465 / 435.565
ITAMSAT 1 25 Jul 05:40:15 05:45:15 48° 294° (WNW) 05:50:12 435.822/435.867
STRAND 1 25 Jul 05:47:17 05:48:02 10° 46° (NE) 05:48:47 437.568
Oscar 19 25 Jul 05:54:00 05:54:22 10° 314° (NW) 05:54:42 437.125/150
STARS 25 Jul 06:05:07 06:08:44 25° 266° (W) 06:12:24 437.465
HORYU 2 25 Jul 06:28:47 06:33:06 45° 99° (E) 06:37:24 437.375
Cubesat XI-IV 25 Jul 06:38:46 06:41:13 13° 85° (E) 06:43:38 437.490
AIST 2 25 Jul 06:45:44 06:49:56 81° 48° (NE) 06:54:07 435.215
AO-7 25 Jul 06:46:04 06:54:17 62° 299° (WNW) 07:02:27 29.400- 29.500
RS-15 25 Jul 06:46:42 06:54:54 23° 98° (E) 07:03:21 29.354- 29.394
CUBESAT XI-V 25 Jul 06:49:05 06:53:20 35° 264° (W) 06:57:34 437.345
O/OREOS (USA 219) 25 Jul 06:49:27 06:53:44 40° 54° (NE) 06:58:02 437.305
Cosmos 2491 25 Jul 06:49:47 06:52:35 12° 35° (NE) 06:55:22 435.465 / 435.565
PCSat 25 Jul 06:52:09 06:56:38 27° 249° (WSW) 07:01:06 145.827
DANDE 25 Jul 06:52:23 06:57:17 35° 287° (WNW) 07:01:05 436.750
CUSAT 1 25 Jul 06:56:25 06:56:55 10° 295° (WNW) 06:57:25 437.405
CUTE-I 25 Jul 07:02:06 07:06:04 21° 90° (E) 07:09:59 437.470
GOMX 1 25 Jul 07:14:48 07:18:40 22° 91° (E) 07:22:40 467.674
NOAA 18 25 Jul 07:18:08 07:22:49 27° 93° (E) 07:27:28 137.9125
DOVE 4 25 Jul 07:20:38 07:23:08 14° 85° (E) 07:25:42 437.250
STRAND 1 25 Jul 07:21:08 07:26:04 48° 67° (ENE) 07:31:00 437.568
ITAMSAT 1 25 Jul 07:22:37 07:23:33 10° 314° (NW) 07:24:28 435.822/435.867
NOAA 15 25 Jul 07:29:22 07:34:21 41° 98° (E) 07:39:19 137.62
PRISM 25 Jul 07:36:20 07:36:58 10° 53° (NE) 07:37:35 437.425
BRITE-PL 25 Jul 07:38:19 07:42:55 63° 101° (ESE) 07:47:54 437.365/2234.400
LilacSat-2 25 Jul 07:44:35 07:48:18 42° 98° (E) 07:51:59 437.200
HORYU 2 25 Jul 08:05:44 08:09:29 27° 298° (WNW) 08:13:13 437.375
Cubesat XI-IV 25 Jul 08:16:49 08:22:14 76° 105° (ESE) 08:27:34 437.490
CUTE 1.7 + AOD 2 25 Jul 08:24:47 08:25:27 10° 85° (E) 08:26:07 437.475
AIST 2 25 Jul 08:25:19 08:27:53 16° 247° (WSW) 08:30:26 435.215
O/OREOS (USA 219) 25 Jul 08:29:04 08:33:03 31° 253° (WSW) 08:37:02 437.305
AO-7 25 Jul 08:39:43 08:45:33 22° 322° (NW) 08:51:23 29.400- 29.500
SO-50 25 Jul 08:40:52 08:42:32 12° 108° (ESE) 08:44:12 436.795
CUTE-I 25 Jul 08:41:18 08:46:40 71° 289° (WNW) 08:51:59 437.470
Cosmos 2491 25 Jul 08:44:38 08:52:43 39° 64° (ENE) 09:00:47 435.465 / 435.565
HO-68 25 Jul 08:47:44 08:53:44 27° 91° (E) 08:59:41 435.675
GOMX 1 25 Jul 08:52:16 08:57:04 61° 289° (WNW) 09:02:11 467.674
RS-15 25 Jul 08:53:39 09:05:09 74° 123° (ESE) 09:17:16 29.354- 29.394
DOVE 4 25 Jul 08:56:30 09:01:33 81° 102° (ESE) 09:06:48 437.250
NOAA 18 25 Jul 08:58:23 09:03:51 58° 293° (WNW) 09:09:15 137.9125
STRAND 1 25 Jul 09:00:58 09:05:27 29° 266° (W) 09:09:57 437.568
SEEDS 25 Jul 09:06:08 09:09:13 20° 91° (E) 09:12:16 437.485
PRISM 25 Jul 09:07:28 09:11:30 68° 73° (ENE) 09:15:34 437.425
NOAA 15 25 Jul 09:09:19 09:14:05 36° 297° (WNW) 09:18:51 137.62
CUBEBUG 2 25 Jul 09:11:31 09:14:08 15° 86° (E) 09:16:44 437.445
BRITE-PL 25 Jul 09:17:38 09:21:06 21° 299° (WNW) 09:24:45 437.365/2234.400
LilacSat-2 25 Jul 09:19:22 09:22:24 22° 297° (WNW) 09:25:24 437.200
TIGRISAT 25 Jul 09:20:28 09:22:40 13° 53° (NE) 09:24:53 435.000
COMPASS 1 25 Jul 09:22:05 09:25:12 20° 91° (E) 09:28:18 437.405
CINEMA 3 25 Jul 09:24:34 09:29:29 52° 99° (E) 09:34:22 145.822/145.860
UNISAT 6 25 Jul 09:34:58 09:38:04 18° 57° (ENE) 09:41:13 437.425
CANX-2 25 Jul 09:43:53 09:48:07 69° 102° (ESE) 09:52:18 2200.000
Oscar 11 25 Jul 09:46:11 09:48:18 13° 87° (E) 09:50:24 145.826/435.025
AAUSAT CUBESAT 2 25 Jul 09:52:15 09:55:57 31° 95° (E) 09:59:38 437.432
Cubesat XI-IV 25 Jul 09:57:44 10:01:47 22° 304° (NW) 10:05:47 437.490
CUTE 1.7 + AOD 2 25 Jul 09:57:46 10:02:01 83° 104° (ESE) 10:06:14 437.475
ANTELSAT 25 Jul 10:12:09 10:16:20 34° 65° (ENE) 10:20:34 437.575/2403.000
SO-50 25 Jul 10:17:19 10:22:10 65° 127° (SE) 10:26:57 436.795
YUBILEINY 25 Jul 10:20:39 10:28:47 44° 86° (E) 10:36:57 435.215
CUTE-I 25 Jul 10:22:49 10:25:51 15° 310° (NW) 10:28:52 437.470
QB50P2 25 Jul 10:27:37 10:28:45 11° 53° (NE) 10:29:53 145.880/145.840
UWE-3 25 Jul 10:29:12 10:33:45 49° 99° (E) 10:38:11 435.000/436.395/437.385
POLYITAN 1 25 Jul 10:30:07 10:31:23 11° 53° (NE) 10:32:39 437.675
GOMX 1 25 Jul 10:32:32 10:34:20 12° 307° (NW) 10:36:11 467.674
DELFI C3 25 Jul 10:33:59 10:36:35 17° 90° (E) 10:39:12 145.870
AO-7 25 Jul 10:34:20 10:35:13 10° 349° (N) 10:36:06 29.400- 29.500
ZACube-1 25 Jul 10:34:52 10:39:08 38° 96° (E) 10:43:18 437.345
HO-68 25 Jul 10:34:56 10:42:09 75° 292° (WNW) 10:49:19 435.675
DOVE 4 25 Jul 10:35:12 10:38:44 20° 302° (WNW) 10:42:22 437.250
FUNcube-1 25 Jul 10:35:12 10:39:25 36° 96° (E) 10:43:31 145.935
NOAA 18 25 Jul 10:40:49 10:43:25 14° 314° (NW) 10:46:02 137.9125
SEEDS 25 Jul 10:41:09 10:45:13 51° 290° (WNW) 10:49:15 437.485
Cosmos 2491 25 Jul 10:41:31 10:50:04 62° 268° (W) 10:58:38 435.465 / 435.565
PRISM 25 Jul 10:45:00 10:47:17 14° 271° (W) 10:49:34 437.425
CUBEBUG 2 25 Jul 10:46:37 10:51:26 85° 285° (WNW) 10:56:07 437.445
TIGRISAT 25 Jul 10:53:55 10:58:33 73° 72° (ENE) 11:03:16 435.000
COMPASS 1 25 Jul 10:57:02 11:01:02 48° 290° (WNW) 11:05:01 437.405
JAS-2 25 Jul 10:59:31 11:01:38 12° 49° (NE) 11:03:42 435.910
CINEMA 3 25 Jul 11:02:09 11:06:22 28° 298° (WNW) 11:10:35 145.822/145.860
RS-15 25 Jul 11:06:55 11:18:28 55° 332° (NNW) 11:30:33 29.354- 29.394
UNISAT 6 25 Jul 11:09:34 11:14:13 79° 256° (WSW) 11:18:58 437.425
NANOSAT C BR1 25 Jul 11:12:47 11:16:09 23° 62° (ENE) 11:19:33 145.865
DUCHIFAT 1 25 Jul 11:18:03 11:21:29 25° 62° (ENE) 11:24:56 145.980
Oscar 11 25 Jul 11:20:41 11:25:02 81° 285° (WNW) 11:29:21 145.826/435.025
CANX-2 25 Jul 11:20:46 11:23:31 17° 301° (WNW) 11:26:15 2200.000
AAUSAT CUBESAT 2 25 Jul 11:27:48 11:31:26 31° 294° (WNW) 11:35:03 437.432
Cosmos 2504 25 Jul 11:28:38 11:36:45 42° 85° (E) 11:44:47 435.465 / 435.565
QB50P1 25 Jul 11:33:17 11:37:11 36° 66° (ENE) 11:41:07 145.935-145.965
M-CUBED/EXP-1 PRIME 25 Jul 11:34:21 11:38:47 42° 104° (ESE) 11:43:16 437.505
CUTE 1.7 + AOD 2 25 Jul 11:34:57 11:37:17 15° 303° (WNW) 11:39:37 437.475
POPSAT HIP 1 25 Jul 11:39:24 11:43:23 40° 68° (ENE) 11:47:26 437.405
BUGSAT 1 25 Jul 11:41:52 11:44:56 21° 60° (ENE) 11:48:02 437.445
ANTELSAT 25 Jul 11:48:43 11:53:00 36° 264° (W) 11:57:23 437.575/2403.000
SO-50 25 Jul 11:58:36 12:03:00 33° 328° (NNW) 12:07:21 436.795
QB50P2 25 Jul 11:59:31 12:03:45 67° 72° (ENE) 12:08:01 145.880/145.840
POLYITAN 1 25 Jul 12:02:09 12:06:23 68° 72° (ENE) 12:10:41 437.675
AUBIESAT-1 25 Jul 12:02:16 12:06:51 63° 107° (ESE) 12:11:28 437.475
UWE-3 25 Jul 12:06:06 12:09:58 26° 298° (WNW) 12:13:44 435.000/436.395/437.385
DELFI C3 25 Jul 12:07:56 12:11:47 53° 289° (WNW) 12:15:38 145.870
HUMSAT D 25 Jul 12:07:57 12:12:14 76° 104° (ESE) 12:16:24 437.325/437.525
ZACube-1 25 Jul 12:11:19 12:15:20 31° 296° (WNW) 12:19:16 437.345
FUNcube-1 25 Jul 12:11:33 12:15:36 32° 295° (WNW) 12:19:33 145.935
ESTCUBE 1 25 Jul 12:11:37 12:14:44 18° 90° (E) 12:17:50 437.505/2401.250
YUBILEINY 25 Jul 12:16:54 12:25:28 54° 289° (WNW) 12:34:08 435.215
Oscar 19 25 Jul 12:17:49 12:20:33 15° 51° (NE) 12:23:17 437.125/150
AO-7 25 Jul 12:21:49 12:24:18 12° 17° (NNE) 12:26:48 29.400- 29.500
HO-68 25 Jul 12:23:38 12:28:49 22° 314° (NW) 12:34:01 435.675
CUBEBUG 2 25 Jul 12:24:35 12:27:20 15° 305° (NW) 12:30:04 437.445
50 SAT 25 Jul 12:30:58 12:32:59 14° 90° (E) 12:35:01 437.505
TIGRISAT 25 Jul 12:32:47 12:35:46 17° 272° (W) 12:38:49 435.000
VELOX 1 25 Jul 12:37:05 12:40:17 19° 91° (E) 12:43:28 145.980
JAS-2 25 Jul 12:40:00 12:45:48 57° 69° (ENE) 12:51:05 435.910
Cosmos 2491 25 Jul 12:40:42 12:45:01 15° 291° (WNW) 12:49:22 435.465 / 435.565
CUBEBUG 1 25 Jul 12:43:29 12:47:06 25° 93° (E) 12:50:44 437.445
NANOSAT C BR1 25 Jul 12:47:34 12:51:39 47° 261° (W) 12:55:47 145.865
SPROUT 25 Jul 12:48:38 12:50:34 13° 87° (E) 12:52:30 437.525
UNISAT 6 25 Jul 12:50:08 12:51:45 12° 276° (W) 12:53:22 437.425
DUCHIFAT 1 25 Jul 12:52:56 12:56:58 44° 261° (W) 13:01:04 145.980
Oscar 11 25 Jul 12:58:32 13:00:28 13° 305° (NW) 13:02:25 145.826/435.025
M-CUBED/EXP-1 PRIME 25 Jul 13:09:04 13:13:11 33° 302° (WNW) 13:17:22 437.505
QB50P1 25 Jul 13:09:20 13:13:02 28° 265° (W) 13:16:46 145.935-145.965
POPSAT HIP 1 25 Jul 13:15:47 13:19:20 25° 266° (W) 13:22:55 437.405
BUGSAT 1 25 Jul 13:15:59 13:19:59 52° 260° (W) 13:24:05 437.445
Gurwin Techsat 1B 25 Jul 13:19:59 13:24:02 23° 57° (ENE) 13:28:06 435.225
AISAT 25 Jul 13:20:57 13:25:18 49° 100° (E) 13:29:37 437.250
Cosmos 2504 25 Jul 13:21:10 13:29:54 59° 288° (WNW) 13:38:36 435.465 / 435.565
RS-15 25 Jul 13:22:38 13:34:03 44° 5° (N) 13:45:43 29.354- 29.394
DX 1 25 Jul 13:28:00 13:32:09 41° 99° (E) 13:36:18 434.975-435.025
AIST 1 25 Jul 13:29:56 13:31:56 13° 82° (E) 13:33:56
AUBIESAT-1 25 Jul 13:37:21 13:40:57 23° 306° (NW) 13:44:37 437.475
QB50P2 25 Jul 13:37:24 13:40:01 16° 271° (W) 13:42:40 145.880/145.840
POLYITAN 1 25 Jul 13:40:05 13:42:41 16° 271° (W) 13:45:17 437.675
SO-50 25 Jul 13:41:40 13:44:51 17° 352° (N) 13:47:59 436.795
HUMSAT D 25 Jul 13:44:45 13:47:19 16° 302° (WNW) 13:49:51 437.325/437.525
UKube-1 25 Jul 13:45:31 13:49:44 48° 100° (E) 13:53:56 .
ITAMSAT 1 25 Jul 13:47:22 13:50:24 16° 51° (NE) 13:53:25 435.822/435.867
ESTCUBE 1 25 Jul 13:47:31 13:51:58 62° 289° (WNW) 13:56:23 437.505/2401.250
TISAT 1 25 Jul 13:51:14 13:53:31 14° 88° (E) 13:55:47 437.305
Oscar 19 25 Jul 13:53:56 13:59:02 72° 71° (ENE) 14:04:10 437.125/150
50 SAT 25 Jul 14:03:26 14:06:59 54° 289° (WNW) 14:10:29 437.505
AO-7 25 Jul 14:07:41 14:14:17 27° 43° (NE) 14:20:54 29.400- 29.500
VELOX 1 25 Jul 14:12:45 14:17:08 59° 289° (WNW) 14:21:30 145.980
AO-85 25 Jul 14:14:57 14:17:03 12° 108° (ESE) 14:19:08 145.980
CUBEBUG 1 25 Jul 14:19:24 14:23:35 44° 292° (WNW) 14:27:46 437.445
YUBILEINY 25 Jul 14:19:43 14:24:50 16° 317° (NW) 14:29:58 435.215
SPROUT 25 Jul 14:22:47 14:27:08 85° 288° (WNW) 14:31:28 437.525
JAS-2 25 Jul 14:26:16 14:31:14 27° 266° (W) 14:35:50 435.910
GONETS M04 25 Jul 14:33:48 14:37:39 14° 68° (ENE) 14:41:30
Cosmos 2499 25 Jul 14:41:50 14:43:44 11° 65° (ENE) 14:45:37 435.465 / 435.565
BEESAT 25 Jul 14:52:04 14:54:19 13° 86° (E) 14:56:34 436.000
AISAT 25 Jul 14:57:57 15:01:32 24° 299° (WNW) 15:05:06 437.250
Gurwin Techsat 1B 25 Jul 14:58:11 15:03:30 73° 256° (WSW) 15:08:51 435.225
DX 1 25 Jul 15:04:30 15:08:12 27° 297° (WNW) 15:11:54 434.975-435.025
AIST 1 25 Jul 15:04:40 15:08:55 76° 281° (WNW) 15:13:13
ITUPSAT 1 25 Jul 15:12:56 15:16:26 20° 90° (E) 15:19:54 437.325
Cosmos 2504 25 Jul 15:19:51 15:25:30 18° 313° (NW) 15:31:07 435.465 / 435.565
UKube-1 25 Jul 15:22:05 15:25:32 23° 299° (WNW) 15:28:58 .
SO-50 25 Jul 15:23:34 15:27:01 19° 16° (NNE) 15:30:26 436.795
ITAMSAT 1 25 Jul 15:23:50 15:29:03 75° 71° (ENE) 15:34:18 435.822/435.867
TISAT 1 25 Jul 15:25:25 15:29:43 76° 284° (WNW) 15:33:57 437.305
ESTCUBE 1 25 Jul 15:26:45 15:27:54 11° 309° (NW) 15:29:04 437.505/2401.250
Oscar 19 25 Jul 15:35:16 15:38:54 19° 271° (W) 15:42:34 437.125/150
CUSAT 1 25 Jul 15:37:21 15:40:03 59° 76° (ENE) 15:43:10 437.405
DANDE 25 Jul 15:42:48 15:44:40 17° 67° (ENE) 15:46:30 436.750
